Temperature
16 16 16 16 16 15 15 15 15 14 14 14 14 14 14 14 13 13 13 13 13 12 12 12 12 12 12 12 12 12 12 12 12 12 11 11 11 11 11 11 11 11 11
16 16 16 15 15 15 15 14 14 14 14 13 13 13 13 13 13 13 13 13 12 12 12 12 12 11 11 11 11 11 11 11 11 11 11 11 11 11 10 10 10 10 10
15 15 15 15 15 14 14 14 14 13 13 13 13 13 13 13 12 12 12 12 12 12 12 12 11 11 11 11 10 10 10 10 10 10 10 10 10 10 10 10 10 9 9
15 15 15 15 14 14 14 13 13 13 13 13 13 13 12 12 12 12 12 12 12 12 12 11 11 11 11 10 10 9 9 9 9 9 9 9 9 9 9 9 9 9 8
14 14 14 14 14 14 13 13 13 13 13 13 13 13 13 12 12 12 12 12 12 12 12 11 11 11 11 10 10 9 9 9 9 9 9 8 8 8 8 8 8 8 7
14 14 14 14 14 13 13 13 13 13 13 13 13 12 13 12 12 12 12 12 12 12 12 11 11 11 11 10 10 9 8 8 8 8 8 8 8 7 7 7 7 7 6
14 14 14 14 14 13 13 13 13 13 13 13 12 12 12 12 12 12 12 12 12 12 12 11 11 10 10 10 9 9 8 7 7 7 7 7 7 6 6 6 6 6 5
14 14 14 14 14 13 13 13 13 13 12 12 12 11 11 11 12 12 12 12 12 11 11 11 11 10 10 9 9 9 8 7 7 6 6 6 6 6 5 5 5 5 5
14 14 14 14 13 13 13 13 13 12 12 12 12 11 11 11 11 11 11 11 11 11 11 11 10 10 9 9 8 8 7 7 6 6 6 5 5 5 5 4 4 4 4
14 14 14 13 13 13 13 13 12 12 12 11 11 11 10 10 10 10 10 10 10 10 10 10 10 9 9 8 8 7 7 6 6 5 5 5 5 4 4 4 4 4 4
13 13 13 13 13 12 12 12 12 12 12 11 11 10 10 10 10 9 9 9 9 9 9 9 9 9 8 8 8 7 6 6 5 5 4 4 4 4 4 4 4 4 4
12 12 12 12 12 12 12 11 11 11 11 11 10 10 10 9 9 9 8 8 8 8 8 8 8 8 8 7 7 7 6 5 5 4 4 4 4 3 4 3 3 4 4
11 11 11 11 11 11 11 11 10 10 10 10 10 9 9 9 8 8 8 7 7 7 7 8 7 7 7 7 6 6 5 5 4 4 4 3 3 3 3 3 3 3 3
10 10 10 10 10 10 10 10 9 9 9 9 9 9 8 8 8 7 7 7 6 6 6 6 6 6 6 6 6 5 5 4 4 3 3 3 3 2 2 2 2 2 2
9 9 9 9 9 9 9 9 9 8 8 8 8 8 8 8 7 7 7 6 6 5 5 5 5 5 5 5 5 4 4 3 3 2 2 2 2 2 2 2 2 1 1
8 8 8 8 8 8 8 8 8 8 7 7 7 7 7 7 7 6 6 6 5 5 4 4 4 4 4 4 4 3 3 2 2 2 1 1 1 1 1 1 1 1 1
7 7 7 7 7 7 7 7 7 7 7 7 7 7 7 6 6 6 6 5 5 5 4 4 4 4 4 3 3 2 2 2 1 1 1 1 0 0 0 0 0 0 0
6 6 6 6 6 6 6 6 6 6 6 6 6 6 6 6 6 5 5 5 4 4 4 3 3 3 3 2 2 2 1 1 1 1 0 0 0 0 0 0 0 -0 -0
5 5 5 5 5 6 6 6 6 6 6 6 5 5 5 5 5 4 4 4 3 3 3 2 2 2 2 2 1 1 1 1 0 0 0 -0 -0 -0 -0 -0 -0 -1 -1
4 4 5 5 5 5 5 5 5 5 5 5 4 4 4 3 3 3 3 2 2 2 2 2 1 1 1 1 1 1 0 0 0 -0 -0 -0 -0 -0 -1 -1 -1 -1 -1
4 4 4 4 4 4 4 4 4 4 3 3 3 2 2 2 2 1 1 1 1 1 1 1 1 0 0 0 0 -0 -0 -1 -1 -1 -1 -1 -1 -1 -2 -2 -2 -2 -2
3 3 3 3 3 3 3 3 3 2 2 2 2 1 1 1 0 0 0 -0 -0 -0 -0 -0 -0 -1 -1 -1 -1 -2 -2 -2 -2 -2 -2 -2 -2 -2 -2 -2 -2 -2 -2
2 2 2 2 2 2 2 2 2 2 1 1 1 0 0 -0 -0 -1 -1 -1 -1 -1 -1 -1 -2 -2 -2 -3 -3 -3 -3 -3 -3 -4 -3 -2 -3 -3 -3 -3 -3 -3 -3
1 2 2 2 2 2 2 1 1 1 1 0 -0 -0 -1 -1 -1 -1 -1 -2 -2 -2 -2 -3 -3 -4 -4 -4 -5 -5 -5 -5 -5 -5 -5 -4 -3 -3 -3 -3 -3 -3 -3
1 1 1 1 1 1 1 1 0 0 -0 -1 -1 -1 -2 -2 -2 -3 -3 -3 -3 -4 -4 -4 -5 -5 -5 -6 -6 -6 -6 -6 -5 -5 -5 -5 -4 -4 -3 -3 -3 -3 -3
1 1 1 1 1 1 0 0 -0 -1 -1 -1 -2 -2 -3 -3 -4 -4 -4 -4 -4 -5 -5 -5 -6 -6 -6 -6 -6 -6 -6 -6 -6 -6 -6 -6 -6 -6 -4 -3 -3 -4 -4
Wind_Speed
6 7 7 7 8 7 7 7 6 6 6 6 5 5 6 7 8 10 10 11 10 10 9 8 8 7 6 6 5 5 4 4 3 3 3 4 4 5 6 6 7 8 8
9 7 7 7 9 10 10 9 8 7 6 6 6 7 8 9 10 12 13 13 13 13 12 12 11 10 9 9 8 7 6 6 5 4 4 3 3 4 5 5 5 6 6
12 10 7 6 10 12 11 9 8 7 5 5 6 8 9 10 11 13 15 15 16 16 16 15 14 13 12 11 11 10 9 8 7 6 5 5 4 3 4 4 4 4 5
15 11 7 7 12 11 9 6 5 5 6 6 6 6 7 9 11 14 15 16 17 17 18 18 18 16 15 15 14 13 12 11 10 8 7 6 5 4 4 3 3 3 3
16 13 9 10 11 9 7 6 6 5 6 7 7 7 6 6 8 10 12 16 18 19 19 20 21 20 18 18 17 16 15 14 13 11 10 9 8 6 5 4 3 2 1
14 13 10 10 10 6 6 7 8 7 6 6 6 6 6 6 5 6 10 13 16 19 20 20 20 20 21 21 20 18 17 16 15 14 12 11 10 8 7 6 5 4 3
11 11 8 7 7 8 9 8 7 7 7 3 3 4 4 6 7 7 7 7 10 15 16 18 18 18 18 22 22 21 20 18 18 16 15 13 12 10 9 8 6 5 4
7 8 7 5 5 7 8 8 7 5 4 4 4 3 4 4 5 7 6 7 7 9 11 15 16 17 18 18 20 22 22 21 20 18 17 15 14 12 11 9 8 6 5
5 6 6 6 5 6 7 7 7 7 6 5 5 5 4 5 3 3 4 5 5 5 6 9 13 16 17 16 17 20 21 21 21 19 19 18 16 14 12 10 9 7 6
4 4 4 5 4 5 6 6 6 6 6 5 4 6 6 3 3 4 3 3 3 5 5 5 8 12 15 15 16 17 19 21 22 21 19 18 17 16 13 11 9 7 5
5 6 5 3 3 4 5 5 5 5 5 6 5 4 5 4 5 5 5 4 3 3 4 5 6 9 13 15 15 17 19 21 22 21 19 17 16 15 13 12 10 6 3
3 5 6 4 3 3 4 4 4 5 5 5 5 4 4 4 5 5 7 5 4 3 2 3 3 6 9 12 15 16 19 22 23 22 19 18 16 14 12 10 7 4 2
3 5 4 4 3 3 3 2 2 3 3 3 3 3 4 5 3 4 4 4 4 2 2 2 2 3 5 7 10 14 18 21 22 22 20 18 15 11 7 5 4 3 3
3 4 4 4 4 4 4 2 1 1 1 1 1 1 1 2 2 3 3 3 4 3 3 4 1 2 4 5 7 11 14 19 20 20 19 15 10 6 5 5 5 6 6
3 4 4 5 5 6 5 4 3 4 3 3 3 3 2 2 2 1 1 2 3 4 4 2 2 2 3 3 5 6 8 13 15 15 14 10 7 5 6 7 8 8 9
4 5 5 6 6 7 6 6 5 5 6 6 5 6 5 4 4 3 2 1 1 3 3 1 1 2 3 2 3 3 4 7 9 9 8 7 6 7 8 9 9 10 10
6 6 6 6 7 8 7 7 7 7 8 7 7 7 7 6 5 5 4 3 3 1 3 1 1 2 2 1 2 3 3 2 2 3 3 3 4 6 6 7 8 9 10
6 6 6 7 8 8 8 8 8 8 8 8 8 8 7 6 7 5 4 4 3 3 1 1 1 2 2 2 2 3 4 4 2 1 2 4 5 6 7 7 8 8 8
7 7 8 8 8 8 8 8 8 9 9 9 8 8 7 7 7 5 5 5 4 3 3 1 2 2 2 2 3 3 3 4 3 2 3 4 4 5 6 7 7 9 10
7 7 7 8 8 8 8 8 8 9 9 8 8 7 7 6 6 5 5 5 4 4 4 3 2 2 2 2 2 2 2 3 2 3 3 4 4 5 6 8 9 11 11
7 7 7 7 7 7 7 7 7 8 8 8 8 8 8 9 8 6 5 4 4 4 4 3 3 2 3 3 2 2 2 2 2 2 2 2 4 6 9 10 11 12 14
7 7 7 7 8 8 11 12 9 7 7 7 7 6 7 9 11 12 11 10 7 5 3 3 2 3 2 2 2 2 1 2 2 2 2 3 3 4 8 10 11 12 13
6 7 7 7 7 9 12 12 12 7 7 6 6 6 5 7 8 6 9 11 11 12 8 3 2 2 2 1 1 1 1 0 2 2 2 3 2 4 7 9 11 12 13
5 5 6 6 6 7 10 10 10 7 6 5 5 4 5 5 5 6 6 6 6 6 7 5 3 1 1 1 1 1 1 1 3 3 2 3 3 3 4 10 12 11 11
5 4 4 5 5 5 8 8 8 4 4 4 4 4 4 4 7 8 5 4 4 5 7 7 5 4 5 4 1 2 1 1 3 2 1 2 3 3 4 4 7 6 5
4 3 3 3 3 3 4 6 6 3 3 3 3 4 6 5 7 6 3 2 3 3 3 4 5 5 5 5 4 2 3 3 2 3 2 1 2 3 4 3 3 7 8
Wind_Direction
202 210 220 225 230 231 230 234 242 251 261 270 267 253 249 248 245 240 240 239 238 234 232 231 228 229 231 231 224 209 196 185 174 157 136 119 109 101 95 90 86 83 81
210 213 222 228 233 233 234 234 237 243 254 261 265 256 247 245 244 240 239 239 239 236 234 235 234 232 230 229 226 219 213 209 199 186 175 156 139 124 112 100 90 85 83
218 218 223 229 235 237 237 239 243 242 247 247 253 255 248 241 239 237 235 235 237 236 233 234 235 233 230 228 227 222 217 217 214 205 194 182 169 152 135 119 104 93 86
222 220 224 233 236 234 229 229 232 237 243 241 246 248 243 240 239 238 233 231 232 233 232 232 233 232 230 228 228 224 219 218 217 214 209 201 193 188 175 157 137 118 101
225 221 228 233 230 225 224 229 230 225 242 244 244 248 244 239 240 239 232 231 229 229 229 229 230 229 228 228 228 226 222 217 216 216 215 212 207 205 200 194 185 175 161
228 224 231 232 221 219 226 227 234 229 237 247 254 257 249 242 238 235 237 236 233 231 229 229 229 229 227 227 228 229 226 219 215 217 217 216 214 214 214 213 214 217 222
231 224 230 228 216 223 230 226 229 235 241 219 240 271 268 243 240 241 236 236 237 235 233 231 229 228 228 227 227 228 228 225 218 216 217 217 217 219 220 223 225 229 237
238 231 231 232 220 226 233 229 219 226 226 184 196 240 290 298 260 243 235 237 243 239 235 235 232 230 229 227 226 226 228 229 224 219 217 218 218 218 222 225 228 232 240
262 246 244 241 233 227 236 233 221 224 240 214 197 207 237 256 292 287 249 242 243 237 238 238 234 235 234 232 230 227 227 230 231 226 220 218 218 219 220 225 227 233 242
331 303 277 257 245 237 240 242 228 224 231 236 208 222 233 232 245 293 291 278 253 246 245 240 237 236 234 233 233 231 227 227 231 233 230 223 219 217 219 223 228 234 241
352 347 330 303 275 259 255 251 241 230 227 235 217 202 223 232 229 244 272 283 293 259 241 233 234 234 233 231 229 227 224 225 230 233 238 236 229 221 220 221 222 225 234
343 355 352 343 321 296 280 267 254 243 238 238 230 202 195 202 210 218 248 256 261 264 260 255 245 246 241 234 230 226 223 223 225 226 230 234 235 231 226 224 216 208 222
343 343 347 341 334 325 315 297 268 256 248 245 241 228 216 224 209 209 240 263 266 275 298 299 295 292 265 246 236 228 225 224 223 224 224 227 230 225 216 215 217 235 266
325 334 345 352 357 357 357 3 13 359 359 336 300 258 228 235 218 215 227 253 278 273 264 271 334 328 303 269 245 229 227 224 222 222 223 223 220 199 195 217 235 254 268
345 359 7 14 17 19 19 29 42 33 44 40 30 35 46 32 26 333 239 221 245 278 281 260 280 340 317 282 252 228 220 223 220 221 220 215 202 202 232 245 253 261 266
16 22 29 36 36 33 32 44 48 45 58 48 45 55 50 35 37 29 15 347 254 253 272 313 312 351 324 308 259 211 197 211 215 214 211 212 218 236 250 256 258 261 265
34 41 46 50 48 43 41 52 53 53 62 56 50 58 52 43 43 32 30 30 19 341 278 349 43 357 349 349 29 80 113 142 191 227 237 246 255 258 258 260 263 267 268
44 49 54 57 55 52 51 58 61 58 62 59 52 55 48 49 47 37 39 40 29 14 348 330 17 11 13 19 48 69 74 81 78 356 302 286 277 270 266 266 269 272 273
57 56 60 62 60 59 60 61 66 66 65 62 57 57 50 53 50 40 41 38 26 22 23 49 35 27 25 33 53 58 65 55 61 27 327 310 308 297 285 280 278 277 277
64 63 66 70 70 67 65 67 71 72 69 62 55 53 50 54 58 49 45 37 34 36 37 53 49 36 32 27 50 54 58 44 36 19 347 334 332 327 314 299 287 283 280
71 67 67 67 71 72 71 72 70 72 69 63 52 44 44 49 58 66 63 47 43 44 44 47 41 32 27 26 33 29 51 27 25 21 352 333 322 308 299 295 288 279 272
71 66 63 64 67 72 77 80 80 69 66 61 52 38 37 41 44 48 53 51 51 53 46 47 37 39 24 21 20 32 45 29 341 3 353 294 281 278 282 283 281 275 270
77 69 62 62 65 72 76 78 80 75 68 60 53 43 39 35 45 41 44 43 39 43 50 71 57 34 13 2 59 32 33 2 271 296 340 288 296 282 281 282 287 283 274
81 74 63 56 56 66 77 80 83 74 67 56 49 45 39 18 37 54 48 38 30 30 44 57 77 23 300 237 186 173 195 280 286 272 211 270 300 283 284 292 297 291 277
89 78 69 60 52 42 71 82 85 76 64 43 27 28 38 15 21 41 56 36 20 5 19 29 26 10 354 331 240 136 119 15 313 293 240 250 297 300 291 292 304 313 314
111 101 77 57 44 13 53 84 97 89 65 33 15 9 10 7 7 22 79 43 355 326 343 355 359 358 1 4 22 140 170 172 231 285 279 245 294 333 317 293 275 285 293
Height
1566 1567 1567 1568 1569 1569 1570 1570 1571 1571 1571 1571 1571 1571 1571 1571 1571 1571 1571 1571 1571 1571 1570 1569 1568 1567 1566 1565 1565 1564 1563 1563 1563 1563 1563 1563 1563 1563 1563 1563 1563 1563 1563
1564 1565 1566 1567 1567 1568 1568 1569 1569 1569 1569 1569 1569 1569 1569 1569 1569 1569 1568 1568 1568 1568 1568 1567 1566 1565 1564 1564 1563 1562 1562 1562 1562 1562 1562 1562 1562 1562 1562 1562 1562 1562 1562
1563 1563 1564 1565 1566 1566 1566 1566 1566 1566 1566 1566 1566 1566 1566 1566 1566 1565 1565 1565 1565 1565 1565 1564 1564 1563 1562 1562 1561 1561 1560 1560 1560 1560 1560 1560 1560 1560 1561 1561 1561 1561 1561
1561 1561 1561 1562 1563 1563 1563 1563 1563 1563 1563 1562 1562 1563 1562 1562 1562 1562 1561 1561 1561 1561 1561 1561 1560 1560 1559 1559 1559 1558 1558 1557 1558 1558 1558 1558 1558 1558 1559 1559 1559 1559 1560
1558 1558 1558 1559 1560 1559 1559 1559 1559 1559 1559 1558 1558 1558 1557 1557 1557 1557 1556 1556 1556 1556 1556 1556 1556 1556 1556 1556 1555 1555 1555 1555 1555 1555 1555 1555 1556 1556 1556 1557 1557 1557 1558
1554 1554 1555 1555 1555 1555 1555 1555 1555 1554 1554 1553 1552 1551 1551 1551 1551 1551 1551 1551 1550 1550 1550 1550 1551 1551 1551 1551 1551 1552 1552 1551 1551 1552 1552 1552 1553 1553 1554 1554 1555 1555 1556
1550 1550 1550 1550 1550 1550 1550 1550 1549 1549 1548 1548 1547 1545 1544 1544 1543 1544 1544 1544 1544 1544 1544 1544 1545 1545 1546 1546 1546 1547 1548 1548 1548 1548 1548 1549 1550 1550 1551 1551 1552 1553 1554
1545 1545 1545 1545 1545 1545 1545 1545 1544 1543 1543 1543 1542 1540 1538 1537 1536 1537 1537 1538 1538 1538 1538 1538 1538 1539 1539 1540 1541 1541 1542 1543 1544 1544 1544 1545 1546 1546 1547 1548 1549 1550 1551
1540 1539 1539 1539 1539 1539 1539 1539 1539 1538 1537 1537 1537 1537 1534 1531 1531 1531 1532 1532 1532 1532 1532 1532 1532 1532 1532 1533 1534 1535 1536 1537 1539 1540 1540 1540 1541 1542 1543 1545 1546 1546 1547
1534 1534 1533 1533 1533 1533 1532 1533 1533 1532 1532 1531 1531 1530 1530 1529 1527 1524 1525 1527 1527 1526 1526 1526 1525 1525 1525 1525 1526 1527 1528 1530 1532 1534 1535 1536 1536 1537 1538 1540 1541 1542 1543
1528 1528 1527 1527 1527 1526 1526 1526 1526 1526 1526 1525 1525 1525 1524 1524 1523 1521 1518 1519 1520 1520 1520 1520 1519 1519 1518 1518 1518 1519 1520 1521 1523 1525 1528 1530 1531 1532 1533 1534 1535 1537 1538
1522 1522 1521 1521 1521 1520 1520 1520 1520 1520 1520 1519 1519 1519 1519 1518 1518 1517 1514 1513 1513 1514 1514 1513 1513 1512 1512 1511 1511 1511 1512 1513 1515 1517 1519 1522 1524 1525 1526 1528 1529 1530 1532
1518 1517 1516 1516 1515 1515 1515 1514 1514 1514 1514 1514 1514 1513 1513 1513 1513 1512 1511 1509 1507 1507 1507 1507 1507 1506 1505 1504 1504 1504 1504 1505 1507 1509 1512 1514 1517 1518 1520 1521 1523 1524 1526
1513 1512 1512 1511 1511 1510 1509 1509 1509 1509 1509 1508 1508 1508 1508 1508 1508 1507 1506 1505 1503 1501 1501 1501 1501 1500 1499 1498 1497 1497 1497 1499 1500 1503 1506 1508 1511 1512 1514 1516 1517 1518 1519
1509 1508 1507 1507 1506 1505 1505 1504 1504 1504 1504 1503 1503 1503 1503 1503 1502 1502 1502 1501 1500 1497 1496 1496 1496 1495 1494 1493 1492 1491 1492 1493 1495 1498 1500 1503 1505 1507 1509 1511 1512 1512 1513
1505 1504 1504 1503 1502 1502 1501 1501 1500 1500 1499 1499 1499 1498 1498 1498 1498 1497 1497 1496 1495 1494 1493 1491 1491 1490 1489 1488 1487 1487 1488 1489 1491 1494 1496 1499 1500 1502 1503 1504 1506 1506 1507
1502 1501 1501 1500 1499 1499 1498 1498 1497 1496 1496 1496 1495 1495 1494 1494 1494 1493 1493 1492 1491 1490 1489 1488 1486 1485 1485 1484 1483 1484 1485 1486 1488 1491 1493 1494 1496 1497 1498 1499 1500 1500 1501
1499 1498 1498 1497 1497 1496 1496 1495 1495 1494 1493 1493 1492 1492 1491 1491 1490 1489 1489 1488 1487 1486 1485 1484 1483 1482 1482 1481 1481 1482 1483 1484 1486 1488 1489 1490 1491 1492 1493 1494 1494 1494 1494
1496 1496 1496 1495 1495 1494 1494 1493 1492 1492 1491 1491 1490 1490 1489 1488 1487 1487 1486 1485 1484 1483 1482 1482 1481 1480 1480 1480 1480 1480 1481 1482 1483 1484 1485 1486 1486 1487 1487 1487 1487 1488 1487
1495 1494 1494 1493 1493 1493 1492 1491 1491 1490 1489 1489 1488 1488 1487 1486 1486 1485 1484 1483 1482 1482 1481 1480 1480 1479 1479 1478 1478 1478 1479 1479 1479 1480 1480 1480 1481 1481 1481 1481 1481 1481 1481
1493 1493 1492 1492 1492 1491 1491 1490 1489 1489 1488 1487 1487 1486 1486 1485 1484 1483 1483 1482 1481 1480 1479 1479 1478 1478 1477 1477 1476 1476 1476 1476 1476 1476 1475 1475 1475 1475 1475 1475 1474 1474 1474
1492 1492 1491 1491 1491 1490 1490 1489 1489 1488 1487 1487 1486 1485 1485 1484 1483 1482 1481 1480 1480 1479 1477 1477 1476 1476 1475 1474 1474 1473 1473 1472 1472 1472 1471 1471 1470 1470 1469 1469 1468 1468 1468
1491 1491 1491 1491 1490 1490 1490 1489 1488 1488 1487 1486 1485 1484 1483 1482 1482 1481 1479 1478 1477 1476 1476 1475 1474 1473 1473 1472 1471 1470 1470 1469 1469 1467 1467 1466 1466 1465 1464 1463 1463 1463 1463
1491 1491 1491 1491 1490 1490 1489 1489 1488 1487 1486 1485 1484 1483 1482 1480 1479 1478 1477 1476 1475 1474 1472 1472 1471 1471 1470 1469 1468 1468 1467 1466 1465 1465 1463 1462 1461 1461 1460 1459 1458 1458 1458
1491 1491 1491 1490 1490 1489 1489 1488 1487 1486 1485 1483 1482 1481 1479 1478 1477 1475 1474 1473 1472 1471 1470 1469 1469 1468 1467 1467 1466 1465 1464 1463 1462 1462 1460 1459 1458 1456 1456 1455 1454 1453 1453
1490 1490 1490 1490 1489 1489 1488 1487 1486 1485 1483 1482 1480 1479 1477 1476 1474 1473 1472 1471 1470 1469 1468 1467 1466 1466 1465 1464 1463 1463 1462 1461 1460 1459 1458 1457 1455 1453 1451 1450 1450 1450 1449